Location: Boitzum
(52.1496°N, 9.6943°E)
Time: 06:21:28
(UTC+00:00)

Cosmos 2184 Rocket - Pass Details

Date: 13 January 2026
Orbit: 959 x 1001 km, 82.9° (Epoch: 18 February)

Event Time Altitude Azimuth Distance (km) Brightness Sun altitude
Rises 06:10:56 0° 212° (SSW) 3,658 6.9 -10.8°
Reaches altitude 10° 06:13:36 10° 219° (SW) 2,709 6.2 -10.4°
Maximum altitude 06:19:26 42° 290° (WNW) 1,347 4.3 -9.6°
Drops below altitude 10° 06:25:17 10° 0° (N) 2,707 6.1 -8.8°
Sets 06:27:57 0° 8° (N) 3,656 6.8 -8.4°
